Theta_e
317 317 316 316 314 313 313 312 312 311 311 310 310 311 313 320 319 318 319 319 318 314 314 315 311 310 309 306 302 300 294 292 291 290 292 290 288 290 289 287 287 286 286
316 316 317 316 315 314 314 312 311 310 310 309 309 311 312 318 318 319 318 319 315 314 314 313 310 307 305 304 298 297 292 291 290 294 292 290 292 289 288 287 287 287 286
315 315 315 315 315 315 315 313 311 310 309 308 308 310 312 315 314 317 316 316 314 314 314 314 313 308 304 300 294 292 291 290 293 294 292 291 289 290 287 287 287 287 286
314 314 314 314 314 314 314 313 312 310 309 308 308 309 311 311 315 314 315 316 314 314 312 309 305 304 304 300 293 291 290 292 294 294 293 291 294 289 287 288 287 286 286
313 313 314 314 313 312 313 312 311 310 309 308 308 309 311 313 314 313 314 314 313 313 310 308 303 301 299 292 291 290 292 294 297 296 294 297 289 288 288 287 287 286 286
312 312 312 312 313 312 311 310 309 309 308 307 307 308 310 310 310 312 313 312 311 310 308 303 298 298 293 289 289 292 295 297 296 295 296 291 289 286 289 286 286 285 285
311 311 311 310 311 311 310 308 307 307 306 305 306 306 309 308 309 311 311 310 308 307 304 298 296 292 290 288 289 293 295 295 295 295 295 290 286 286 288 286 285 285 285
311 310 309 309 309 308 308 307 305 305 304 304 304 304 306 306 308 308 308 308 305 301 296 293 292 290 289 289 290 292 293 293 293 294 293 288 285 287 287 285 284 285 284
311 311 310 309 308 307 307 305 303 303 302 302 302 302 304 305 305 305 304 303 301 298 292 290 289 290 289 289 290 292 292 293 293 292 291 289 287 287 285 284 285 283 283
311 310 309 308 307 306 304 303 302 301 300 299 299 301 302 302 302 301 301 299 296 293 291 287 288 288 288 290 290 291 291 291 291 291 290 290 287 286 283 283 282 282 282
308 307 306 305 304 303 302 301 300 299 298 297 298 299 299 299 298 297 297 294 292 291 289 288 288 286 287 288 289 289 290 290 291 290 289 288 288 286 283 283 283 282 281
305 304 302 302 301 300 299 298 297 296 295 295 296 296 296 296 294 292 291 289 288 288 288 288 288 288 287 287 288 288 289 289 289 289 288 287 286 284 283 283 282 281 280
300 299 299 298 297 296 296 295 295 295 294 295 294 294 293 292 290 288 287 287 287 287 288 288 288 288 287 287 287 287 289 288 288 287 286 285 284 283 282 281 280 280 279
297 297 297 296 295 294 294 294 294 294 293 293 293 294 294 293 292 291 289 288 288 288 288 288 288 287 287 287 287 288 288 287 287 286 284 284 283 282 281 280 280 279 278
296 296 295 295 295 294 293 294 294 294 294 294 293 293 293 292 292 291 291 290 290 289 288 288 288 287 287 287 287 287 287 286 285 284 283 282 282 281 280 280 279 278 275
296 295 295 296 295 294 295 294 293 293 293 293 293 293 293 293 292 292 291 290 289 288 288 288 288 287 287 287 286 286 285 285 284 283 282 281 281 280 279 278 277 274 273
297 296 296 295 294 294 294 294 294 292 292 291 291 291 291 291 291 291 291 291 290 289 289 289 288 287 286 286 285 285 283 282 282 281 280 280 279 278 278 275 274 273 272
297 296 295 295 294 293 293 292 291 291 290 290 290 289 289 289 289 289 289 288 288 288 288 288 287 287 286 285 284 283 282 281 281 280 279 278 278 277 275 273 273 272 271
293 292 291 291 290 290 290 289 289 289 288 288 288 287 287 287 287 287 286 286 286 285 285 285 284 284 283 283 282 282 281 280 279 278 278 277 276 274 273 272 272 271 270
290 290 289 289 289 288 288 288 288 287 287 287 287 286 286 286 285 285 285 284 284 283 283 282 282 281 281 281 280 280 279 278 278 277 276 274 273 272 271 271 271 270 269
288 288 288 288 288 288 288 288 287 287 287 286 285 285 285 285 284 284 283 283 282 281 281 280 280 279 279 278 278 277 276 275 274 274 273 272 272 271 270 270 270 269 268
287 288 288 288 287 287 287 287 286 286 286 285 285 285 284 284 283 283 282 281 280 279 279 278 278 277 277 275 274 273 273 273 272 272 272 271 270 270 269 269 268 268 268
288 287 287 287 286 286 285 285 284 284 284 283 283 283 282 282 281 280 280 279 279 278 277 276 275 274 273 273 272 272 272 271 270 270 270 269 269 268 268 268 268 268 267
286 285 285 285 284 284 283 283 282 282 281 281 280 280 279 278 277 277 276 275 275 274 273 273 273 273 272 272 271 270 270 269 269 268 268 268 267 267 267 266 266 266 266
284 283 283 282 281 281 280 280 280 280 279 279 278 277 277 276 276 275 275 274 274 273 273 272 272 271 270 270 270 269 268 268 268 268 268 267 267 266 266 265 265 265 265
281 280 279 279 279 279 279 279 279 278 277 277 276 275 275 274 274 273 273 272 272 272 271 270 270 269 269 269 268 268 268 268 268 267 267 267 266 266 266 266 266 265 265
Wind_Speed
16 16 17 19 21 23 26 28 31 33 35 37 33 31 33 43 43 41 44 40 39 36 43 46 50 50 46 40 38 33 30 28 24 22 19 14 12 10 15 17 17 18 18
24 27 25 24 23 24 25 27 29 32 34 36 35 33 31 34 34 40 43 43 40 40 41 42 45 44 42 38 36 31 29 29 25 18 16 13 11 12 18 18 18 19 19
28 31 28 28 29 26 25 27 29 31 32 34 34 34 34 34 36 36 38 42 41 40 39 41 40 41 39 37 34 31 29 26 21 17 15 13 10 15 19 18 19 18 21
31 29 32 31 34 30 28 28 29 30 31 31 31 33 33 34 35 35 38 40 39 41 42 41 39 38 39 38 34 31 29 25 19 16 14 14 17 18 18 17 20 22 24
33 31 29 33 35 32 32 31 30 31 31 28 29 31 32 34 35 35 37 38 39 40 41 39 36 36 35 33 35 33 29 23 18 16 14 26 18 19 17 18 23 26 28
36 37 31 29 32 33 32 31 30 31 31 28 28 30 32 33 32 35 35 36 36 39 40 38 34 33 30 33 31 26 23 17 12 15 26 21 18 19 22 19 25 28 32
36 34 31 31 32 32 32 31 31 30 29 27 27 28 31 30 30 34 34 32 33 36 37 35 32 29 34 35 33 28 18 15 16 23 29 21 21 27 22 21 26 29 33
32 29 29 30 30 30 30 30 28 27 27 26 26 26 29 29 30 32 32 31 32 32 32 29 26 31 36 37 33 28 23 23 18 29 27 22 26 26 20 23 27 33 34
20 21 22 22 23 24 24 23 23 23 23 24 23 23 26 27 29 28 27 27 29 28 28 25 27 33 36 35 31 23 21 16 24 25 27 28 26 23 21 25 30 30 34
24 22 20 20 19 18 18 18 18 17 17 17 16 18 20 22 23 23 21 20 21 23 23 25 29 31 33 32 28 25 22 25 24 25 28 28 23 22 23 26 26 28 27
21 19 17 16 15 14 14 14 13 12 12 11 12 13 14 14 14 14 11 11 14 19 25 29 31 30 31 29 27 24 28 30 30 28 27 29 27 23 23 23 23 24 23
17 15 14 13 12 11 10 8 7 7 7 7 7 7 7 7 5 4 5 4 7 13 19 23 27 31 29 28 26 27 27 27 29 29 27 27 24 22 22 23 21 21 22
13 11 9 8 8 7 6 5 6 7 8 8 7 6 4 3 4 8 8 3 2 5 10 14 18 21 23 24 26 24 25 30 32 26 25 23 22 24 25 22 23 24 24
9 8 7 6 6 7 9 10 9 9 8 7 8 8 9 8 7 7 9 6 4 5 8 11 13 15 18 21 23 24 29 28 24 22 21 22 26 26 26 26 26 24 22
9 9 10 12 13 13 14 15 13 15 15 14 13 13 13 13 11 9 7 5 4 6 9 12 14 17 19 22 25 26 22 21 20 22 24 26 26 27 26 26 24 23 24
13 14 14 15 16 16 15 17 16 13 12 12 10 9 9 8 7 6 5 5 6 9 12 13 15 17 21 23 24 23 23 23 23 24 25 26 26 26 24 22 23 23 22
15 15 15 15 15 15 13 12 13 12 9 8 6 5 4 3 2 3 2 3 6 10 12 13 16 19 22 23 24 24 24 24 23 21 22 22 22 21 21 22 22 21 19
16 16 17 17 15 13 13 11 10 9 8 7 6 6 6 4 1 1 1 3 6 9 12 15 17 19 21 22 21 21 22 23 21 20 20 20 20 20 21 21 20 19 17
18 16 16 15 14 12 11 10 9 8 6 6 7 7 6 5 5 5 4 3 5 8 11 12 14 15 16 17 18 18 19 20 19 19 19 20 20 21 20 20 18 18 16
15 15 15 13 12 11 10 9 8 6 4 4 3 2 3 4 4 5 7 9 9 10 12 14 14 15 16 16 16 17 19 19 20 20 20 21 21 20 19 18 17 16 14
15 13 12 12 11 11 10 8 6 4 2 0 1 4 6 6 7 10 11 13 15 15 16 16 16 17 17 17 17 18 19 19 20 20 21 21 20 19 18 17 16 15 14
13 13 12 11 11 10 8 6 5 3 1 3 5 8 9 11 13 15 16 17 18 18 19 19 18 18 18 18 18 19 19 20 21 20 21 21 20 18 17 16 15 16 15
10 11 11 11 8 6 5 3 1 2 4 7 9 11 13 15 16 17 18 19 20 20 21 21 20 19 19 20 20 20 20 20 20 19 19 19 19 18 17 17 17 16 15
11 10 8 7 6 4 2 2 3 6 8 10 12 14 15 16 18 19 21 21 21 21 21 21 22 22 22 23 23 21 21 20 20 19 20 20 19 19 19 18 18 18 16
9 8 6 4 3 2 3 5 7 9 12 13 15 17 18 19 20 22 23 23 24 24 24 24 24 23 24 24 23 22 21 21 21 21 21 21 20 19 20 20 19 19 18
7 5 3 2 3 5 7 9 11 13 15 17 18 19 20 22 22 23 24 25 25 25 25 24 24 23 23 23 22 22 21 21 21 22 22 22 21 20 20 20 20 20 19
Wind_Direction
297 284 277 270 266 266 265 264 265 266 264 263 260 252 245 237 238 243 247 248 246 259 258 253 247 248 243 235 229 229 229 226 225 213 217 222 224 249 265 264 271 280 287
302 286 276 272 268 266 269 269 265 265 263 259 257 251 249 241 242 244 244 245 249 256 255 259 250 246 240 232 227 227 222 218 216 211 212 213 238 254 265 267 274 280 292
301 279 272 273 271 272 273 273 269 266 264 260 253 250 248 245 244 244 248 244 248 255 257 254 256 244 236 227 223 219 212 208 204 216 216 224 236 257 262 270 279 291 293
294 270 270 276 277 266 273 274 273 270 266 262 257 253 247 249 243 245 249 246 250 254 252 250 250 246 235 227 220 213 206 200 208 220 229 234 260 252 262 282 293 297 299
289 277 273 272 272 262 269 270 270 269 268 263 255 249 246 246 247 250 251 247 246 254 253 253 250 239 231 226 222 208 204 208 223 238 247 282 243 254 267 284 290 295 298
288 284 279 267 267 267 269 269 268 268 267 262 254 247 242 247 249 251 252 251 249 253 252 248 241 233 223 217 207 206 213 226 248 275 290 251 246 255 275 285 288 295 298
285 283 274 268 266 266 268 269 268 267 265 262 256 248 244 249 250 252 251 251 251 252 251 245 240 222 218 205 202 208 217 246 273 275 284 242 249 257 270 282 288 294 296
278 276 273 268 266 265 264 264 264 261 259 257 255 251 248 250 252 253 251 252 252 250 246 242 229 219 215 215 212 222 234 254 269 278 274 238 248 263 272 281 288 289 292
278 275 270 266 264 264 263 261 258 255 255 257 255 249 249 251 255 259 258 256 254 250 240 227 221 218 216 215 218 228 239 253 268 277 262 252 256 264 275 278 286 291 296
283 276 270 265 262 259 258 255 255 253 253 253 251 249 250 252 255 259 265 263 254 244 228 211 212 217 217 224 228 236 249 257 280 287 272 269 257 266 271 278 282 284 289
273 271 269 267 266 265 262 258 253 250 248 244 243 245 249 254 263 268 273 265 254 238 223 211 205 208 216 227 235 244 253 261 285 284 276 268 264 266 271 272 277 280 284
264 264 263 264 264 261 255 247 233 220 210 206 217 226 232 239 248 245 283 293 256 235 223 219 213 210 216 229 240 251 257 279 291 282 276 271 270 274 276 282 284 288 288
257 247 247 249 247 231 213 196 173 162 160 162 169 174 168 159 155 170 209 263 293 259 239 232 226 224 228 239 247 259 266 273 280 272 272 279 280 283 289 284 285 287 290
227 220 205 181 165 152 140 130 125 119 120 117 116 112 108 101 102 124 154 166 171 209 216 224 227 237 246 257 262 262 273 274 269 271 273 264 266 274 275 278 282 287 292
197 179 158 141 128 126 118 108 106 107 104 101 101 99 98 103 107 112 128 156 185 214 224 233 238 244 252 258 264 270 268 266 263 260 260 266 264 267 271 278 284 290 294
145 132 127 122 122 127 128 127 123 116 113 109 106 101 101 101 106 123 143 176 210 230 242 248 260 268 269 268 267 269 271 267 263 262 259 258 261 266 270 274 281 285 292
154 146 139 134 137 137 129 122 123 122 121 118 117 120 120 112 108 118 145 201 228 239 250 257 258 260 262 262 265 268 266 266 270 266 265 264 264 265 270 276 280 284 290
163 155 145 147 145 137 130 127 120 115 109 109 105 85 74 62 59 23 288 268 249 260 266 267 264 265 263 266 270 270 271 270 268 267 265 266 269 274 277 278 280 283 286
159 153 145 145 138 137 131 121 104 98 89 75 64 59 51 42 24 359 337 301 281 274 276 276 273 274 272 271 271 271 270 270 270 270 271 275 277 276 275 275 277 280 282
155 151 144 140 137 132 126 118 111 102 88 71 57 26 4 3 350 331 316 301 294 286 285 282 281 279 276 275 274 273 272 274 275 276 276 276 275 274 273 273 274 276 280
151 144 145 146 148 146 142 140 140 142 142 138 287 283 295 307 303 297 297 295 292 291 288 286 285 283 282 282 281 276 274 273 273 275 276 276 274 273 271 273 274 276 279
155 155 156 156 152 149 149 154 165 172 233 285 295 303 302 299 296 296 294 291 291 294 295 294 293 289 286 282 278 277 278 279 279 279 277 276 276 276 276 274 274 277 279
161 162 162 155 148 148 141 141 94 10 330 319 310 305 301 299 297 296 294 295 295 295 293 292 291 290 287 285 283 282 281 279 276 275 276 276 276 277 275 274 274 274 276
157 153 151 146 141 134 107 43 355 332 316 307 303 302 302 301 300 299 299 298 297 295 293 291 290 288 286 284 284 282 280 278 275 275 275 277 277 277 276 274 273 273 271
149 152 149 133 113 68 12 344 327 318 311 305 303 303 302 302 301 300 299 298 297 296 294 292 290 287 284 284 283 281 279 277 278 276 275 275 275 274 274 274 273 273 272
149 141 121 71 4 340 325 316 311 308 305 304 303 304 306 306 305 304 302 300 298 296 295 294 292 289 286 284 283 281 279 276 274 274 274 273 272 270 270 271 270 269 270